Date String (YYYY-MM-DD hh:mm:ss) UTC,Instrument flags,Ambient pressure (hPa),Sample flow (lpm),Bypass flow (lpm),Sample temperature (°C),Ambient temperature (°C),ASC tube jacket temperature (°C),LED temperature (°C),Box temperature (°C),Sample RH (%),Span deviation,Mass concentration (μg/m³),Mass concentration (μg/m³),Mass concentration (μg/m³)
DateTimeUTC,F1_M11,P_M11,Q1_M11,Q2_M11,T1_M11,T2_M11,T3_M11,T4_M11,T5_M11,U1_M11,ZSPAN_M11,X2_M11,X0_M11,X1_M11
2023-02-14 15:00:00,,0802.0,4.98,0.00,22.0,21.2,00.0,30.9,23.9,08.2,0000.0,0001.99,0005.21,0001.39
2023-02-14 15:01:00,,0802.2,5.02,0.00,22.2,22.6,00.0,30.9,24.2,08.3,0000.0,0002.01,0004.96,0001.39
2023-02-14 15:02:00,,0802.3,5.01,0.00,22.3,23.0,00.0,31.0,24.4,08.2,0000.0,0002.01,0004.97,0001.40
2023-02-14 15:03:00,,0802.2,4.98,0.00,22.3,22.4,00.0,31.0,24.3,08.2,0000.0,0001.97,0004.20,0001.41
2023-02-14 15:04:00,,0802.2,5.02,0.00,22.4,22.0,00.0,31.1,24.2,08.1,0000.0,0002.06,0004.47,0001.42
2023-02-14 15:05:00,,0802.2,4.98,0.00,22.3,21.6,00.0,31.1,24.2,08.3,0000.0,0002.11,0004.61,0001.44
2023-02-14 15:06:00,,0802.2,5.00,0.00,22.3,21.3,00.0,31.1,24.1,08.2,0000.0,0002.15,0005.26,0001.46
2023-02-14 15:07:00,,0802.1,4.99,0.00,22.3,21.1,00.0,31.1,24.1,08.4,0000.0,0002.18,0005.38,0001.47
2023-02-14 15:08:00,,0802.0,4.99,0.00,22.3,20.9,00.0,31.1,24.0,08.2,0000.0,0002.20,0005.51,0001.46
2023-02-14 15:09:00,,0802.0,5.00,0.00,22.3,20.8,00.0,31.1,24.0,08.0,0000.0,0002.24,0005.65,0001.48
2023-02-14 15:10:00,,0802.0,4.99,0.00,22.2,20.7,00.0,31.1,23.9,08.1,0000.0,0002.27,0005.76,0001.48
2023-02-14 15:11:00,,0802.0,4.99,0.00,22.2,20.6,00.0,31.1,23.9,08.1,0000.0,0002.21,0005.35,0001.47
2023-02-14 15:12:00,,0802.0,5.01,0.00,22.2,20.5,00.0,31.1,23.8,08.2,0000.0,0002.16,0004.82,0001.45
2023-02-14 15:13:00,,0802.0,5.01,0.00,22.2,20.5,00.0,31.1,23.8,07.9,0000.0,0002.15,0004.69,0001.46
2023-02-14 15:14:00,,0802.0,5.00,0.00,22.1,20.4,00.0,31.1,23.8,07.9,0000.0,0002.15,0004.64,0001.47
2023-02-14 15:15:00,,0801.8,5.00,0.00,22.1,20.3,00.0,31.1,23.7,08.1,0000.0,0002.11,0004.81,0001.48
2023-02-14 15:16:00,,0801.9,5.00,0.00,22.1,20.2,00.0,31.1,23.7,07.4,0000.0,0002.10,0005.26,0001.47
2023-02-14 15:17:00,,0801.8,5.01,0.00,22.0,20.2,00.0,31.0,23.6,07.2,0000.0,0002.09,0004.72,0001.46
2023-02-14 15:18:00,,0801.7,5.00,0.00,22.0,20.1,00.0,31.0,23.6,07.7,0000.0,0002.01,0004.42,0001.44
2023-02-14 15:19:00,,0801.6,5.01,0.00,22.0,20.7,00.0,31.0,23.7,07.6,0000.0,0002.02,0004.34,0001.45
2023-02-14 15:20:00,,0801.7,4.97,0.00,22.1,22.1,00.0,30.9,24.1,07.5,0000.0,0002.07,0004.57,0001.46
2023-02-14 15:21:00,,0801.7,4.99,0.00,22.3,23.3,00.0,31.0,24.5,07.5,0000.0,0002.14,0004.65,0001.49
2023-02-14 15:22:00,,0801.8,5.01,0.00,22.4,23.1,00.0,31.0,24.5,07.5,0000.0,0002.16,0004.66,0001.50
2023-02-14 15:23:00,,0801.9,5.01,0.00,22.4,22.5,00.0,31.1,24.4,07.4,0000.0,0002.14,0004.67,0001.51
2023-02-14 15:24:00,,0801.9,4.99,0.00,22.4,22.0,00.0,31.1,24.2,07.7,0000.0,0002.12,0004.64,0001.51
2023-02-14 15:25:00,,0801.9,5.01,0.00,22.4,21.6,00.0,31.2,24.2,07.8,0000.0,0002.10,0004.60,0001.50
2023-02-14 15:26:00,,0801.7,5.00,0.00,22.4,21.4,00.0,31.2,24.1,07.8,0000.0,0002.25,0005.28,0001.49
2023-02-14 15:27:00,,0801.7,5.02,0.00,22.4,21.1,00.0,31.2,24.0,07.3,0000.0,0002.58,0006.96,0001.52
2023-02-14 15:28:00,,0801.9,5.00,0.00,22.4,21.0,00.0,31.2,24.0,07.3,0000.0,0002.60,0007.11,0001.54
2023-02-14 15:29:00,,0802.0,5.00,0.00,22.3,20.8,00.0,31.2,23.9,07.4,0000.0,0002.63,0007.23,0001.55
2023-02-14 15:30:00,,0802.1,5.01,0.00,22.3,20.7,00.0,31.2,23.9,07.6,0000.0,0002.69,0007.41,0001.56
2023-02-14 15:31:00,,0802.1,5.01,0.00,22.3,20.6,00.0,31.2,23.9,07.6,0000.0,0002.61,0007.17,0001.54
2023-02-14 15:32:00,,0802.2,4.99,0.00,22.3,20.6,00.0,31.2,23.9,07.7,0000.0,0002.52,0006.94,0001.52
2023-02-14 15:33:00,,0802.1,4.98,0.00,22.2,20.5,00.0,31.2,23.9,08.0,0000.0,0002.48,0006.89,0001.51
2023-02-14 15:34:00,,0801.9,5.01,0.00,22.2,20.5,00.0,31.2,23.8,08.1,0000.0,0002.51,0007.03,0001.52
2023-02-14 15:35:00,,0801.8,4.99,0.00,22.2,20.4,00.0,31.2,23.8,07.6,0000.0,0002.50,0006.97,0001.52
2023-02-14 15:36:00,,0801.9,5.00,0.00,22.1,20.4,00.0,31.1,23.8,07.5,0000.0,0002.52,0006.99,0001.53
2023-02-14 15:37:00,,0801.9,5.00,0.00,22.1,20.4,00.0,31.1,23.7,07.6,0000.0,0002.38,0006.09,0001.53
2023-02-14 15:38:00,,0802.1,5.01,0.00,22.1,20.3,00.0,31.1,23.7,07.2,0000.0,0002.06,0004.10,0001.51
2023-02-14 15:39:00,,0802.1,5.00,0.00,22.1,20.3,00.0,31.1,23.7,07.6,0000.0,0002.02,0003.85,0001.51
2023-02-14 15:40:00,,0802.0,5.00,0.00,22.0,20.5,00.0,31.0,23.7,07.8,0000.0,0002.01,0003.88,0001.51
2023-02-14 15:41:00,,0801.9,5.01,0.00,22.2,22.0,00.0,31.0,24.1,07.9,0000.0,0001.95,0003.92,0001.51
2023-02-14 15:42:00,,0802.1,5.02,0.00,22.3,23.0,00.0,31.0,24.4,08.0,0000.0,0001.98,0004.32,0001.52
2023-02-14 15:43:00,,0802.1,4.99,0.00,22.4,22.7,00.0,31.1,24.4,08.1,0000.0,0002.00,0004.33,0001.52
2023-02-14 15:44:00,,0802.2,4.99,0.00,22.4,22.2,00.0,31.1,24.3,07.6,0000.0,0002.00,0004.24,0001.54
2023-02-14 15:45:00,,0802.2,4.98,0.00,22.4,21.8,00.0,31.2,24.2,07.8,0000.0,0001.99,0004.11,0001.54
2023-02-14 15:46:00,,0802.1,5.00,0.00,22.4,21.5,00.0,31.2,24.2,07.6,0000.0,0001.99,0004.14,0001.54
2023-02-14 15:47:00,,0802.0,5.01,0.00,22.4,21.3,00.0,31.2,24.1,07.6,0000.0,0002.01,0004.26,0001.54
2023-02-14 15:48:00,,0802.0,5.00,0.00,22.4,21.2,00.0,31.2,24.1,07.5,0000.0,0002.00,0004.26,0001.55
2023-02-14 15:49:00,,0802.0,5.00,0.00,22.4,21.1,00.0,31.2,24.1,07.8,0000.0,0002.01,0004.09,0001.55
2023-02-14 15:50:00,,0801.9,4.99,0.00,22.3,21.0,00.0,31.2,24.0,07.7,0000.0,0002.05,0004.25,0001.56
2023-02-14 15:51:00,,0801.9,5.00,0.00,22.3,20.9,00.0,31.2,24.0,07.6,0000.0,0002.10,0004.18,0001.58
2023-02-14 15:52:00,,0801.9,5.00,0.00,22.3,20.8,00.0,31.2,24.0,07.8,0000.0,0002.16,0004.02,0001.60
2023-02-14 15:53:00,,0801.9,5.00,0.00,22.3,20.7,00.0,31.2,23.9,07.8,0000.0,0002.13,0003.58,0001.61
2023-02-14 15:54:00,,0801.9,5.01,0.00,22.3,20.7,00.0,31.2,23.9,07.8,0000.0,0002.11,0003.52,0001.62
2023-02-14 15:55:00,,0801.9,5.00,0.00,22.3,20.6,00.0,31.2,23.9,08.0,0000.0,0002.15,0003.81,0001.62
2023-02-14 15:56:00,,0801.9,4.99,0.00,22.2,20.6,00.0,31.2,23.9,07.7,0000.0,0002.18,0004.04,0001.64
2023-02-14 15:57:00,,0801.9,4.99,0.00,22.2,20.6,00.0,31.2,23.9,07.8,0000.0,0002.19,0004.07,0001.66
2023-02-14 15:58:00,,0801.9,4.99,0.00,22.2,20.5,00.0,31.1,23.8,07.7,0000.0,0002.16,0004.02,0001.66
2023-02-14 15:59:00,,0802.0,5.01,0.00,22.2,20.5,00.0,31.1,23.8,07.7,0000.0,0002.20,0004.06,0001.67
